TimeADT,TemperatureF,Dew PointF,Humidity,Sea Level PressureIn,VisibilityMPH,Wind Direction,Wind SpeedMPH,Gust SpeedMPH,PrecipitationIn,Events,Conditions,WindDirDegrees,DateUTC
12:00 AM,66.2,62.6,88,29.82,12.0,Calm,Calm,-,N/A,,Overcast,0,2013-08-03 03:00:00
1:00 AM,66.2,64.4,94,29.82,12.0,WSW,5.8,-,N/A,,Overcast,240,2013-08-03 04:00:00
2:00 AM,66.2,64.4,94,29.81,12.0,SSW,4.6,-,N/A,,Mostly Cloudy,210,2013-08-03 05:00:00
2:15 AM,-9999,-9999,N/A,-9999,12.0,WSW,4.6,-,N/A,,Overcast,240,2013-08-03 05:15:00
3:00 AM,66,64,92,29.81,12,WSW,8.1,,,,Partly Cloudy,240,2013-08-03 06:00:00
3:00 AM,66.2,64.4,94,29.81,12.0,WSW,8.1,-,N/A,,Overcast,240,2013-08-03 06:00:00
4:00 AM,66.2,64.4,94,29.81,12.0,WSW,12.7,-,N/A,,Overcast,250,2013-08-03 07:00:00
4:12 AM,-9999,-9999,N/A,-9999,12.0,West,12.7,-,N/A,,Light Drizzle,260,2013-08-03 07:12:00
5:00 AM,66.2,64.4,94,29.80,12.0,West,9.2,-,N/A,,Light Drizzle,260,2013-08-03 08:00:00
6:00 AM,66.2,64.4,94,29.81,12.0,WSW,6.9,-,N/A,,Light Drizzle,250,2013-08-03 09:00:00
6:08 AM,-9999,-9999,N/A,-9999,15.0,SW,6.9,-,N/A,,Mostly Cloudy,230,2013-08-03 09:08:00
6:37 AM,-9999,-9999,N/A,-9999,15.0,WSW,4.6,-,N/A,,Mostly Cloudy,250,2013-08-03 09:37:00
7:00 AM,64.4,64.4,100,29.80,15.0,West,3.5,-,N/A,,Mostly Cloudy,260,2013-08-03 10:00:00
7:18 AM,-9999,-9999,N/A,-9999,15.0,WSW,3.5,-,N/A,,Mostly Cloudy,240,2013-08-03 10:18:00
8:00 AM,66.2,62.6,88,29.81,12.0,WSW,2.3,-,N/A,,Mostly Cloudy,240,2013-08-03 11:00:00
8:12 AM,-9999,-9999,N/A,-9999,12.0,West,4.6,-,N/A,,Mostly Cloudy,260,2013-08-03 11:12:00
9:00 AM,68,62,76,29.83,15,WSW,5.8,,,,Partly Cloudy,240,2013-08-03 12:00:00
9:00 AM,68.0,62.6,83,29.82,15.0,SW,5.8,-,N/A,,Scattered Clouds,220,2013-08-03 12:00:00
10:00 AM,71.6,62.6,73,29.82,15.0,SW,6.9,-,N/A,,Mostly Cloudy,230,2013-08-03 13:00:00
11:00 AM,75.2,62.6,65,29.81,15.0,SW,5.8,-,N/A,,Mostly Cloudy,230,2013-08-03 14:00:00
12:00 PM,77.0,62.6,61,29.79,15.0,South,11.5,-,N/A,,Mostly Cloudy,190,2013-08-03 15:00:00
1:00 PM,78.8,60.8,54,29.76,15.0,SSW,13.8,-,N/A,,Mostly Cloudy,210,2013-08-03 16:00:00
2:00 PM,78.8,60.8,54,29.73,15.0,SW,12.7,18.4,N/A,,Mostly Cloudy,220,2013-08-03 17:00:00
2:30 PM,-9999,-9999,N/A,-9999,15.0,SSW,12.7,20.7,N/A,Rain,Light Rain Showers,210,2013-08-03 17:30:00
2:44 PM,-9999,-9999,N/A,-9999,15.0,West,12.7,20.7,N/A,,Mostly Cloudy,280,2013-08-03 17:44:00
2:52 PM,-9999,-9999,N/A,-9999,15.0,West,5.8,-,N/A,Rain,Light Rain Showers,280,2013-08-03 17:52:00
3:00 PM,72,65,71,29.71,15,West,6.9,,,Rain,Light Rain Showers,280,2013-08-03 18:00:00
3:00 PM,71.6,64.4,78,29.71,15.0,West,6.9,-,N/A,Rain,Light Rain Showers,260,2013-08-03 18:00:00
3:16 PM,-9999,-9999,N/A,-9999,15.0,West,6.9,-,N/A,,Mostly Cloudy,270,2013-08-03 18:16:00
4:00 PM,78.8,60.8,54,29.70,15.0,SW,19.6,27.6,N/A,,Mostly Cloudy,230,2013-08-03 19:00:00
5:00 PM,75.2,62.6,65,29.69,15.0,West,12.7,18.4,N/A,,Mostly Cloudy,280,2013-08-03 20:00:00
6:00 PM,73.4,62.6,69,29.70,15.0,WNW,10.4,-,N/A,,Mostly Cloudy,300,2013-08-03 21:00:00
7:00 PM,73.4,60.8,65,29.71,15.0,WSW,10.4,-,N/A,,Mostly Cloudy,240,2013-08-03 22:00:00
8:00 PM,73.4,59.0,61,29.71,15.0,WSW,16.1,-,N/A,,Mostly Cloudy,250,2013-08-03 23:00:00
9:00 PM,69,60,65,29.73,15,WSW,15.0,,,,Partly Cloudy,240,2013-08-04 00:00:00
9:00 PM,69.8,60.8,73,29.73,15.0,WSW,15.0,-,N/A,,Mostly Cloudy,240,2013-08-04 00:00:00
10:00 PM,66.2,59.0,78,29.75,15.0,WSW,10.4,-,N/A,,Partly Cloudy,240,2013-08-04 01:00:00
11:00 PM,64.4,57.2,77,29.75,15.0,SW,5.8,-,N/A,,Partly Cloudy,230,2013-08-04 02:00:00